This demonstration page uses our WeatherBlox Daily Observations layout. Learn more.

Left ArrowRight Arrow

44.89941, -97.11507

Hourly Observations for May 12, 2022

Temp ( °F °C ) Dew Point ( °F °C ) Humidity (%) Winds ( mph kmh ) Pressure ( in mb ) Visibility ( mi km ) Precip ( " mm )
12:53 am 00:53 Clear 62 16.7 59 15 90 90 SE 8 13 29.88 1012 10 16 0.00 0.00
1:53 am 01:53 Mostly Clear 63 17.2 59 15 87 87 SE 12 19 29.85 1011 10 16 0.00 0.00
2:53 am 02:53 Clear 63 17.2 59 15 87 87 E 8 13 29.81 1010 10 16 0.00 0.00
3:32 am 03:32 Mostly Cloudy with Thunderstorms 63 17.2 59 15 87 87 E 7 11 29.79 1009 10 16 0.00 0.00
3:46 am 03:46 Mostly Cloudy with Strong Thunderstorms 62 16.7 59 15 90 90 SW 25 41 29.90 1012 3 4 0.13 3.30
3:50 am 03:50 Mostly Cloudy with Strong Thunderstorms 63 17 61 16 94 94 WSW 15 24 29.87 1012 1 2 0.24 6.10
3:53 am 03:53 Mostly Cloudy with Strong Thunderstorms 62 16.7 60 15.6 93 93 WSW 10 17 29.88 1012 1 2 0.32 8.13
3:57 am 03:57 Cloudy with Strong Thunderstorms 62 16.7 61 16.1 96 96 WSW 9 15 29.86 1011 1 2 0.07 1.78
4:04 am 04:04 Cloudy with Strong Thunderstorms 61 16.1 61 16.1 100 100 VRB 3 6 29.86 1011 2 3 0.12 3.05
4:11 am 04:11 Cloudy with Thunderstorms 61 16.1 61 16.1 100 100 NNE 3 6 29.89 1012 4 6 0.13 3.30
4:32 am 04:32 Cloudy with Nearby Thunderstorms 61 16.1 59 15 93 93 NE 10 17 29.82 1010 6 10 0.17 4.32
4:37 am 04:37 Cloudy with Light Rain 61 16.1 60 15.6 97 97 N 13 20 29.81 1009 6 10 0.17 4.32
4:53 am 04:53 Cloudy with Nearby Thunderstorms 62 16.7 60 15.6 93 93 ESE 9 15 29.83 1010 10 16 0.17 4.32
5:02 am 05:02 Mostly Cloudy 62 16.7 61 16.1 96 96 E 9 15 29.80 1009 10 16 0.00 0.00
5:44 am 05:44 Mostly Cloudy with Nearby Thunderstorms 63 17.2 61 16.1 93 93 ESE 8 13 29.79 1009 9 14 0.01 0.25
5:53 am 05:53 Mostly Cloudy with Nearby Thunderstorms 62 16.7 60 15.6 93 93 E 10 17 29.81 1010 8 13 0.03 0.76
6:04 am 06:04 Mostly Cloudy with Thunderstorms 62 16.7 60 15.6 93 93 E 13 20 29.77 1008 10 16 0.00 0.00
6:41 am 06:41 Cloudy with Nearby Thunderstorms 61 16.1 60 15.6 97 97 E 15 24 29.73 1007 10 16 0.08 2.03
6:53 am 06:53 Cloudy with Thunderstorms 61 16.1 60 15.6 97 97 E 21 33 29.76 1008 10 16 0.08 2.03
7:24 am 07:24 Cloudy with Strong Thunderstorms 60 15.6 59 15 96 96 NE 15 24 29.78 1009 3 5 0.18 4.57
7:39 am 07:39 Cloudy with Thunderstorms 61 16.1 59 15 93 93 NE 10 17 29.79 1009 10 16 0.18 4.57
7:46 am 07:46 Cloudy with Nearby Thunderstorms 61 16.1 60 15.6 97 97 N 10 17 29.81 1009 10 16 0.18 4.57
7:53 am 07:53 Cloudy with Nearby Thunderstorms 61 16.1 59 15 93 93 NNE 10 17 29.80 1009 10 16 0.19 4.83
8:11 am 08:11 Cloudy 61 16.1 59 15 93 93 E 16 26 29.78 1008 10 16 0.00 0.00
8:23 am 08:23 Cloudy 60 15.6 59 15 96 96 E 16 26 29.77 1008 10 16 0.00 0.00
8:34 am 08:34 Cloudy 60 15.6 59 15 96 96 E 13 20 29.77 1008 7 11 0.00 0.00
8:53 am 08:53 Cloudy 61 16.1 60 15.6 97 97 E 14 22 29.78 1009 10 16 0.00 0.00
9:35 am 09:35 Cloudy 62 16.7 60 15.6 93 93 E 15 24 29.74 1007 10 16 0.00 0.00
9:44 am 09:44 Cloudy 63 17.2 61 16.1 93 93 E 13 20 29.73 1007 10 16 0.00 0.00
9:53 am 09:53 Mostly Cloudy 63 17.2 60 15.6 90 90 E 13 20 29.76 1008 10 16 0.00 0.00
10:14 am 10:14 Cloudy 63 17.2 60 15.6 90 90 E 16 26 29.73 1007 10 16 0.00 0.00
10:53 am 10:53 Cloudy 61 16.1 59 15 93 93 E 17 28 29.75 1008 10 16 0.00 0.00
11:04 am 11:04 Cloudy 61 16.1 60 15.6 97 97 E 21 33 29.73 1007 10 16 0.00 0.00
11:53 am 11:53 Cloudy 63 17.2 60 15.6 90 90 ESE 18 30 29.73 1007 10 16 0.00 0.00
12:51 pm 12:51 Partly Cloudy 68 20 63 17 83 83 ESE 14 22 29.68 1005 10 16 0.00 0.00
12:53 pm 12:53 Partly Cloudy 69 20.6 63 17.2 81 81 ESE 15 24 29.71 1006 10 16 0.00 0.00
1:18 pm 13:18 Mostly Cloudy 68 20 63 17.2 84 84 ESE 15 24 29.67 1005 10 16 0.00 0.00
1:53 pm 13:53 Cloudy 66 18.9 63 17.2 90 90 E 15 24 29.69 1005 8 13 0.00 0.00
2:18 pm 14:18 Cloudy 69 20.6 64 17.8 84 84 E 15 24 29.63 1003 9 14 0.00 0.00
2:46 pm 14:46 Cloudy 69 20.6 65 18.3 87 87 E 9 15 29.63 1003 8 13 0.00 0.00
2:53 pm 14:53 Cloudy 70 21.1 66 18.9 87 87 ESE 10 17 29.66 1004 7 11 0.00 0.00
3:45 pm 15:45 Mostly Cloudy 73 22.8 68 20 84 84 ESE 14 22 29.57 1001 7 11 0.00 0.00
3:53 pm 15:53 Mostly Cloudy 74 23.3 68 20 82 82 E 14 22 29.61 1003 7 11 0.00 0.00
4:53 pm 16:53 Sunny 76 24.4 70 21.1 82 82 ESE 10 17 29.54 1000 8 13 0.00 0.00
5:48 pm 17:48 Sunny with Nearby Thunderstorms 75 24 72 22 89 89 E 14 22 29.46 998 8 13 0.00 0.00
5:53 pm 17:53 Partly Cloudy with Nearby Thunderstorms 75 23.9 70 21.1 84 84 ESE 14 22 29.51 999 8 13 0.00 0.00
6:02 pm 18:02 Partly Cloudy with Thunderstorms 69 20.6 65 18.3 87 87 S 51 81 29.62 1003 2 3 0.00 0.00
6:16 pm 18:16 Mostly Cloudy with Thunderstorms 64 17.8 62 16.7 93 93 SSW 37 59 29.70 1006 3 5 0.13 3.30
6:40 pm 18:40 Cloudy with Nearby Thunderstorms 64 17.8 61 16.1 90 90 SSW 22 35 29.66 1004 4 6 0.26 6.60
6:53 pm 18:53 Cloudy with Nearby Thunderstorms 63 17.2 59 15 87 87 S 12 19 29.63 1004 9 14 0.28 7.11
7:00 pm 19:00 Mostly Cloudy with Light Rain 63 17.2 59 15 87 87 SE 8 13 29.59 1002 10 16 0.00 0.00
7:53 pm 19:53 Sunny 63 17.2 59 15 87 87 Calm 29.51 999 10 16 0.00 0.00
8:53 pm 20:53 Clear 63 17.2 57 13.9 81 81 WSW 7 11 29.59 1002 10 16 0.00 0.00
9:53 pm 21:53 Partly Cloudy 65 18.3 61 16.1 87 87 SW 17 28 29.67 1005 10 16 0.00 0.00
10:06 pm 22:06 Mostly Cloudy 64 17.8 60 15.6 87 87 SW 15 24 29.63 1003 10 16 0.00 0.00
10:40 pm 22:40 Partly Cloudy 63 17.2 59 15 87 87 SW 8 13 29.63 1003 10 16 0.00 0.00
10:53 pm 22:53 Clear 62 16.7 59 15 90 90 WSW 8 13 29.65 1004 10 16 0.00 0.00
11:53 pm 23:53 Mostly Cloudy 61 16.1 57 13.9 87 87 SSW 15 24 29.68 1005 10 16 0.00 0.00

Powered by AerisWeather